Hourly Data Report for April 14, 2016

All times are specified in Local Standard Time (LST). Add 1 hour to adjust for Daylight Saving Time where and when it is observed.

EMERSON AUTO
MANITOBA

49°00'00.000" N
97°14'15.000" W
242.00 m
5020881
71560
WEX

Download Data

Hourly Data (April 2016)
Hourly Data Report for April 14, 2016
Temp Definition
°C
Dew Point Temp Definition
°C
Rel Hum Definition
%
Wind Dir Definition
10's deg

Wind Spd Definition
km/h
Visibility Definition
km
Stn Press Definition
kPa
Hmdx Definition


Wind Chill Definition


Weather Definition


TIME
00:00 8.4 1.0 60 14 15   98.41     LegendNANA
01:00 7.8 1.5 64 14 19   98.31     LegendNANA
02:00 8.0 1.9 65 14 19   98.22     LegendNANA
03:00 8.2 2.0 65 15 22   98.18     LegendNANA
04:00 8.3 2.2 65 16 21   98.18     LegendNANA
05:00 7.4 2.3 70 15 19   98.12     LegendNANA
06:00 6.9 2.3 72 16 10   98.18     LegendNANA
07:00 7.2 2.3 71 15 19   98.12     LegendNANA
08:00 6.4 4.3 87 16 17   98.17     LegendNANA
09:00 6.3 4.5 88 15 16   98.10     LegendNANA
10:00 6.3 5.3 93 15 12   98.10     LegendNANA
11:00 7.3 6.2 93 11 7   98.08     LegendNANA
12:00 9.0 6.8 86   0   98.06     LegendNANA
13:00 8.4 7.4 93 11 7   98.02     LegendNANA
14:00 9.6 8.6 93 14 9   98.08     LegendNANA
15:00 12.2 9.5 83 16 16   98.08     LegendNANA
16:00 14.6 10.3 75 12 10   98.02     LegendNANA
17:00 15.2 10.7 75 12 7   98.02     LegendNANA
18:00 14.7 11.1 79 6 7   97.97     LegendNANA
19:00 12.9 10.7 86 3 12   97.96     LegendNANA
20:00 11.9 10.1 88 6 8   98.04     LegendNANA
21:00 10.1 9.1 93 4 13   97.98     LegendNANA
22:00 10.4 8.4 88 13 9   98.05     LegendNANA
23:00 10.0 8.2 88 8 15   97.89     LegendNANA

Notes on Data Quality.

Legend

  • E = Estimated
  • M = Missing
  • NA = Not Available
  • ‡ = Partner data that is not subject to review by the National Climate Archives
Date modified: